Total_Precipitation_Accumulation
0.02 0.05 0.18 0.24 0.19 0.19 0.18 0.18 0.18 0.17 0.19 0.22 0.20 0.18 0.18 0.18 0.19 0.20 0.20 0.20 0.20 0.22 0.24 0.27 0.29 0.27 0.26 0.25 0.22 0.23 0.24 0.23 0.22 0.21 0.22 0.24 0.22 0.20 0.18 0.18 0.17 0.17 0.28
0.04 0.05 0.14 0.17 0.15 0.17 0.18 0.18 0.16 0.13 0.14 0.17 0.15 0.13 0.13 0.15 0.17 0.19 0.20 0.22 0.23 0.23 0.22 0.22 0.24 0.25 0.23 0.22 0.22 0.21 0.20 0.18 0.16 0.13 0.12 0.13 0.18 0.21 0.20 0.20 0.18 0.21 0.24
0.03 0.04 0.09 0.12 0.13 0.16 0.17 0.15 0.12 0.09 0.11 0.12 0.11 0.10 0.10 0.11 0.13 0.15 0.18 0.20 0.23 0.25 0.23 0.21 0.23 0.25 0.24 0.22 0.24 0.22 0.21 0.15 0.11 0.11 0.09 0.10 0.19 0.25 0.24 0.22 0.18 0.22 0.23
0.01 0.02 0.05 0.10 0.12 0.14 0.14 0.13 0.10 0.09 0.10 0.10 0.09 0.08 0.08 0.09 0.10 0.11 0.12 0.16 0.21 0.27 0.31 0.31 0.30 0.30 0.26 0.24 0.24 0.21 0.25 0.17 0.09 0.07 0.05 0.08 0.22 0.33 0.31 0.28 0.23 0.24 0.25
0.00 0.01 0.04 0.09 0.12 0.14 0.14 0.13 0.10 0.09 0.10 0.10 0.09 0.08 0.09 0.08 0.08 0.08 0.07 0.09 0.16 0.25 0.31 0.34 0.32 0.30 0.28 0.26 0.23 0.22 0.30 0.23 0.11 0.04 0.03 0.07 0.18 0.35 0.32 0.31 0.27 0.26 0.26
0.01 0.01 0.04 0.09 0.12 0.13 0.14 0.12 0.10 0.10 0.11 0.11 0.10 0.10 0.11 0.11 0.09 0.07 0.06 0.05 0.08 0.15 0.23 0.28 0.28 0.30 0.31 0.26 0.22 0.27 0.37 0.33 0.13 0.03 0.06 0.09 0.14 0.36 0.40 0.35 0.31 0.27 0.26
0.01 0.01 0.04 0.09 0.12 0.13 0.14 0.12 0.11 0.11 0.11 0.11 0.11 0.11 0.13 0.12 0.10 0.09 0.08 0.07 0.05 0.07 0.12 0.19 0.23 0.28 0.31 0.28 0.27 0.36 0.45 0.34 0.10 0.06 0.07 0.10 0.15 0.44 0.62 0.51 0.36 0.30 0.28
0.00 0.01 0.04 0.09 0.12 0.13 0.14 0.14 0.13 0.13 0.14 0.13 0.12 0.12 0.11 0.11 0.11 0.12 0.12 0.10 0.08 0.06 0.07 0.10 0.16 0.22 0.27 0.28 0.30 0.35 0.40 0.23 0.07 0.06 0.08 0.08 0.19 0.53 0.70 0.66 0.51 0.37 0.32
0.00 0.01 0.03 0.06 0.08 0.12 0.13 0.13 0.13 0.14 0.14 0.13 0.12 0.10 0.09 0.09 0.11 0.15 0.15 0.13 0.11 0.10 0.09 0.07 0.08 0.11 0.15 0.20 0.25 0.28 0.26 0.16 0.07 0.12 0.10 0.12 0.20 0.56 0.73 0.75 0.67 0.50 0.38
0.00 0.01 0.02 0.04 0.05 0.08 0.10 0.12 0.13 0.13 0.13 0.12 0.11 0.09 0.08 0.08 0.10 0.12 0.13 0.10 0.11 0.13 0.12 0.11 0.09 0.08 0.08 0.09 0.13 0.15 0.12 0.08 0.05 0.12 0.21 0.19 0.19 0.50 0.73 0.76 0.70 0.63 0.51
0.01 0.01 0.02 0.03 0.04 0.06 0.08 0.09 0.11 0.13 0.13 0.12 0.10 0.09 0.08 0.06 0.05 0.05 0.06 0.06 0.09 0.11 0.10 0.11 0.12 0.09 0.07 0.04 0.04 0.05 0.04 0.02 0.06 0.16 0.22 0.22 0.31 0.62 0.83 0.81 0.79 0.71 0.63
0.01 0.01 0.01 0.02 0.03 0.05 0.05 0.07 0.09 0.10 0.10 0.08 0.08 0.08 0.07 0.07 0.05 0.05 0.05 0.06 0.09 0.11 0.10 0.11 0.12 0.11 0.08 0.06 0.08 0.08 0.03 0.01 0.02 0.06 0.11 0.14 0.34 0.71 0.94 0.94 0.95 0.87 0.75
0.00 0.01 0.01 0.02 0.03 0.04 0.04 0.05 0.07 0.08 0.09 0.10 0.10 0.10 0.10 0.11 0.11 0.11 0.11 0.12 0.13 0.13 0.13 0.14 0.17 0.17 0.19 0.21 0.23 0.20 0.13 0.09 0.05 0.03 0.03 0.06 0.19 0.47 0.79 0.95 1.00 1.00 0.95
0.00 0.00 0.01 0.01 0.03 0.03 0.03 0.03 0.04 0.04 0.07 0.09 0.10 0.12 0.15 0.18 0.20 0.22 0.22 0.26 0.26 0.25 0.24 0.23 0.20 0.20 0.21 0.22 0.24 0.24 0.23 0.22 0.14 0.09 0.05 0.05 0.07 0.14 0.36 0.64 0.87 1.00 1.07
0.00 0.00 0.00 0.01 0.02 0.03 0.03 0.03 0.03 0.03 0.05 0.07 0.08 0.10 0.11 0.11 0.11 0.11 0.12 0.12 0.12 0.14 0.14 0.16 0.17 0.16 0.16 0.16 0.17 0.18 0.21 0.23 0.21 0.17 0.14 0.12 0.08 0.09 0.15 0.30 0.55 0.81 1.02
0.00 0.00 0.00 0.01 0.01 0.02 0.02 0.02 0.02 0.02 0.03 0.04 0.04 0.04 0.04 0.04 0.04 0.03 0.03 0.03 0.02 0.02 0.02 0.03 0.04 0.05 0.06 0.08 0.09 0.11 0.13 0.16 0.18 0.19 0.19 0.21 0.16 0.13 0.14 0.20 0.34 0.57 0.88
0.00 0.00 0.00 0.00 0.01 0.02 0.02 0.02 0.02 0.02 0.02 0.03 0.02 0.02 0.01 0.01 0.02 0.02 0.02 0.01 0.01 0.00 0.00 0.00 0.01 0.01 0.01 0.02 0.03 0.05 0.07 0.08 0.12 0.15 0.18 0.22 0.23 0.20 0.17 0.20 0.27 0.42 0.71
0.00 0.00 0.00 0.01 0.01 0.01 0.02 0.02 0.02 0.02 0.02 0.02 0.02 0.02 0.01 0.01 0.01 0.01 0.01 0.01 0.01 0.01 0.01 0.01 0.01 0.01 0.01 0.02 0.02 0.03 0.06 0.07 0.06 0.09 0.14 0.16 0.19 0.21 0.20 0.20 0.28 0.42 0.60
0.00 0.00 0.00 0.00 0.01 0.01 0.02 0.02 0.02 0.02 0.02 0.02 0.02 0.02 0.02 0.01 0.01 0.01 0.02 0.01 0.01 0.02 0.02 0.03 0.03 0.02 0.02 0.02 0.02 0.02 0.02 0.04 0.05 0.08 0.11 0.14 0.17 0.18 0.20 0.21 0.25 0.34 0.48
0.00 0.00 0.00 0.00 0.00 0.01 0.02 0.03 0.03 0.03 0.03 0.02 0.02 0.02 0.01 0.01 0.01 0.01 0.02 0.01 0.01 0.01 0.02 0.02 0.02 0.02 0.02 0.02 0.02 0.01 0.00 0.01 0.02 0.05 0.07 0.12 0.16 0.17 0.19 0.24 0.27 0.25 0.27
0.00 0.00 0.00 0.00 0.00 0.01 0.02 0.03 0.03 0.03 0.03 0.02 0.02 0.01 0.01 0.01 0.01 0.01 0.01 0.01 0.01 0.01 0.02 0.02 0.02 0.03 0.02 0.02 0.02 0.01 0.00 0.00 0.01 0.02 0.07 0.12 0.17 0.23 0.29 0.34 0.40 0.38 0.30
0.00 0.00 0.00 0.00 0.00 0.01 0.01 0.01 0.01 0.01 0.01 0.01 0.01 0.01 0.01 0.01 0.01 0.01 0.01 0.01 0.01 0.01 0.01 0.01 0.02 0.05 0.04 0.03 0.07 0.11 0.05 0.01 0.00 0.01 0.04 0.09 0.17 0.27 0.39 0.44 0.49 0.50 0.46
0.00 0.00 0.00 0.00 0.00 0.00 0.00 0.01 0.01 0.02 0.02 0.02 0.02 0.01 0.01 0.01 0.01 0.00 0.01 0.01 0.01 0.01 0.01 0.01 0.02 0.04 0.06 0.04 0.07 0.24 0.32 0.16 0.05 0.00 0.01 0.04 0.08 0.12 0.20 0.29 0.36 0.41 0.47
0.00 0.00 0.00 0.00 0.00 0.00 0.00 0.01 0.01 0.01 0.01 0.01 0.01 0.01 0.01 0.01 0.01 0.01 0.01 0.01 0.01 0.01 0.02 0.02 0.03 0.05 0.11 0.12 0.08 0.12 0.22 0.27 0.29 0.13 0.01 0.02 0.02 0.04 0.06 0.10 0.16 0.23 0.34
0.00 0.00 0.00 0.00 0.00 0.00 0.00 0.00 0.01 0.01 0.00 0.00 0.00 0.01 0.01 0.01 0.01 0.01 0.01 0.01 0.01 0.01 0.02 0.03 0.04 0.06 0.12 0.17 0.17 0.15 0.14 0.13 0.19 0.28 0.12 0.02 0.03 0.03 0.03 0.05 0.07 0.10 0.16
0.00 0.00 0.00 0.00 0.00 0.00 0.00 0.00 0.01 0.00 0.00 0.00 0.00 0.01 0.01 0.01 0.01 0.01 0.01 0.01 0.01 0.02 0.03 0.04 0.07 0.09 0.11 0.15 0.18 0.20 0.24 0.26 0.20 0.26 0.22 0.07 0.03 0.03 0.04 0.05 0.06 0.07 0.10